Location: Home
(42.5358°N, 72.7383°W)
Time: 18:12:19
(UTC-05:00)

S-56A Canister/Altair - All Passes

Search period start: 29 November 2021 00:00
Search period end: 09 December 2021 00:00
Orbit: 633 x 2500 km, 38.9° (Epoch: 29 November)

Date Brightness Start Highest point End Pass type
(mag) Time Alt. Az. Time Alt. Az. Time Alt. Az.
29 Nov - 00:46:03 10° SW 00:53:14 34° SSE 00:58:24 10° E night (unlit)
29 Nov - 02:50:35 10° WSW 02:56:56 57° S 03:01:38 10° E visible
29 Nov - 04:55:26 10° W 05:00:18 46° SSW 05:04:32 10° ESE visible
29 Nov - 07:00:36 10° WSW 07:03:11 15° SSW 07:05:49 10° S daylight
29 Nov - 22:13:20 10° SSE 22:16:29 12° SE 22:19:17 10° SE night (unlit)
30 Nov - 00:12:56 10° SW 00:20:34 32° SSE 00:26:00 10° E night (unlit)
30 Nov - 02:17:28 10° WSW 02:24:24 57° S 02:29:19 10° E visible
30 Nov - 04:22:34 10° W 04:27:52 50° SSW 04:32:12 10° ESE visible
30 Nov - 06:27:41 10° WSW 06:30:46 18° SSW 06:33:47 10° SSE visible
30 Nov - 21:41:29 10° SSE 21:43:39 11° SE 21:45:41 10° SE night (unlit)
30 Nov - 23:39:48 10° SSW 23:47:51 31° SSE 23:53:35 10° E night (unlit)
01 Dec - 01:44:17 10° WSW 01:51:49 56° S 01:57:00 10° E night (unlit)
01 Dec - 03:49:37 10° W 03:55:24 54° S 03:59:53 10° ESE visible
01 Dec - 05:54:46 10° W 05:58:21 21° SSW 06:01:43 10° SSE visible
01 Dec - 23:06:39 10° SSW 23:15:04 30° SSE 23:21:08 10° E night (unlit)
02 Dec - 01:11:01 10° WSW 01:19:11 55° S 01:24:42 10° E night (unlit)
02 Dec - 03:16:34 10° W 03:22:54 58° S 03:27:35 10° ESE visible
02 Dec - 05:21:50 10° W 05:25:56 25° SSW 05:29:36 10° SSE visible
02 Dec - 22:33:31 10° SSW 22:42:15 28° SSE 22:48:37 10° E night (unlit)
03 Dec - 00:37:41 10° WSW 00:46:30 54° SSE 00:52:22 10° E night (unlit)
03 Dec - 02:43:25 10° W 02:50:22 62° S 02:55:18 10° ESE visible
03 Dec - 04:48:53 10° W 04:53:32 29° SSW 04:57:28 10° SE visible
03 Dec - 22:00:23 10° SSW 22:09:22 27° SSE 22:16:02 10° E visible
04 Dec - 00:04:18 10° WSW 00:13:45 52° SSE 00:20:01 10° E night (unlit)
04 Dec - 02:10:11 10° W 02:17:48 64° S 02:23:01 10° ESE night (unlit)
04 Dec - 04:15:51 10° W 04:21:07 35° SSW 04:25:19 10° SE visible
04 Dec - 21:27:18 10° SSW 21:36:27 26° SSE 21:43:22 10° E visible
04 Dec - 23:30:53 10° SW 23:40:57 51° SSE 23:47:39 10° E night (unlit)
05 Dec - 01:36:51 10° W 01:45:10 66° S 01:50:43 10° E night (unlit)
05 Dec - 03:42:45 10° W 03:48:40 40° SSW 03:53:09 10° SE visible
05 Dec - 20:54:17 10° SSW 21:03:28 24° SSE 21:10:36 10° E visible
05 Dec - 22:57:26 10° SW 23:08:06 49° SSE 23:15:15 10° E night (unlit)
06 Dec - 01:03:26 10° WSW 01:12:29 67° S 01:18:25 10° E night (unlit)
06 Dec - 03:09:34 10° W 03:16:11 46° SSW 03:20:58 10° SE visible
06 Dec - 05:16:34 10° WSW 05:18:45 13° SW 05:20:47 10° SSW visible
06 Dec - 20:21:23 10° S 20:30:28 22° SE 20:37:44 10° E visible
06 Dec - 22:23:58 10° SW 22:35:11 47° SSE 22:42:47 10° E visible
07 Dec - 00:29:56 10° WSW 00:39:44 67° S 00:46:06 10° E night (unlit)
07 Dec - 02:36:18 10° W 02:43:39 52° SSW 02:48:46 10° ESE visible
07 Dec - 04:42:55 10° WSW 04:46:22 16° SW 04:49:21 10° S visible
07 Dec - 19:48:35 10° S 19:57:25 21° SE 20:04:43 10° E visible
07 Dec - 21:50:31 10° SW 22:02:12 45° SSE 22:10:17 10° E visible
07 Dec - 23:56:22 10° WSW 00:06:55 67° S 00:13:45 10° E night (unlit)
08 Dec - 02:02:57 10° W 02:11:04 57° SSW 02:16:33 10° ESE night (unlit)
08 Dec - 04:09:29 10° W 04:13:58 21° SW 04:17:38 10° S visible
08 Dec - 19:15:56 10° S 19:24:21 19° SE 19:31:32 10° E visible
08 Dec - 21:17:06 10° SW 21:29:09 43° SSE 21:37:43 10° E visible
08 Dec - 23:22:46 10° WSW 23:34:02 67° S 23:41:22 10° E night (unlit)
